Weather History for GMFO - May, 2014

Change the Weather History Date:

Tuesday, May 13, 2014

  Actual Average Record
Temperature  
Mean Temperature 70 °F -  
Max Temperature 85 °F 79 °F 97 °F (2015)
Min Temperature 55 °F 55 °F 44 °F (2004)
Cooling Degree Days 5    
Growing Degree Days 20 (Base 50)    
Moisture  
Dew Point 54 °F    
Average Humidity 56    
Maximum Humidity 88    
Minimum Humidity 27    
Precipitation  
Precipitation 0.00 in 0.04 in - ()
Sea Level Pressure  
Sea Level Pressure 30.01 in    
Wind  
Wind Speed 7 mph ()    
Max Wind Speed 20 mph    
Max Gust Speed -    
Visibility 8.1 miles    
Events      
Averages and records for this station are not official NWS values.
T = Trace of Precipitation, MM = Missing Value Source: Averaged Metar Reports

Daily Weather History Graph

Daily Weather History Graph

Search for Another Location

Airport or City:

Trip Planner

Search our weather history database for the weather conditions in past years. The results will help you decide how hot, cold, wet, or windy it might be!

Date:

Astronomy

May. 13, 2014 Rise Set
Actual Time 6:06 AM WEST 8:02 PM WEST
Civil Twilight 5:38 AM WEST 8:30 PM WEST
Nautical Twilight 5:04 AM WEST 9:03 PM WEST
Astronomical Twilight 4:28 AM WEST 9:40 PM WEST
Moon 6:51 PM WEST (5/13) 5:08 AM WEST (5/13)
Length of Visible Light 14h 51m
Length of Day
13h 55m
Waxing Gibbous, 98% of the Moon is Illuminated
May 13
Waxing Gibbous
May 14
Full
May 21
Last Quarter
May 28
New
Jun 5
First Quarter

Hourly Weather History & Observations

Time (WEST) Temp. Heat Index Dew Point Humidity Pressure Visibility Wind Dir Wind Speed Gust Speed Precip Events Conditions
12:48 AM 64 °F - 50 °F 50% 29.96 in 16 mi SW 3.5 mph - -  
1:00 AM 64.4 °F - 50.0 °F 59% 29.98 in - SW 3.5 mph - N/A   Clear
3:00 AM 60.8 °F - 50.0 °F 68% 29.95 in - SW 4.6 mph - N/A   Clear
4:00 AM 61 °F - 50 °F 59% 29.94 in 12 mi West 5.8 mph - -  
5:00 AM 59.0 °F - 48.2 °F 67% 29.95 in - SW 3.5 mph - N/A   Clear
6:00 AM 55.4 °F - 48.2 °F 77% 29.98 in - WSW 4.6 mph - N/A   Clear
6:46 AM 55 °F - 48 °F 69% 29.98 in 12 mi North 3.5 mph - -  
7:00 AM 55.4 °F - 48.2 °F 77% 29.98 in - North 3.5 mph - N/A   Clear
9:00 AM 73.4 °F - 53.6 °F 50% 30.01 in - Variable 1.2 mph - N/A   Clear
10:00 AM 77 °F - 51 °F 29% 29.97 in 12 mi NNE 4.6 mph - -   Scattered Clouds
10:00 AM 77.0 °F - 55.4 °F 47% 30.04 in 6.2 mi North 5.8 mph - N/A   Scattered Clouds
11:00 AM 77.0 °F - 55.4 °F 47% 30.04 in 6.2 mi North 5.8 mph - N/A   Scattered Clouds
12:00 PM 80.6 °F 80.5 °F 55.4 °F 42% 30.06 in 6.2 mi North 11.5 mph - N/A   Scattered Clouds
1:00 PM 82 °F - 53 °F 27% 29.96 in 12 mi North 11.5 mph - -   Scattered Clouds
1:00 PM 82.4 °F 81.4 °F 53.6 °F 37% 30.04 in 6.2 mi North 11.5 mph - N/A   Scattered Clouds
2:00 PM 86.0 °F 84.5 °F 55.4 °F 35% 30.04 in 6.2 mi North 15.0 mph - N/A   Scattered Clouds
3:00 PM 86.0 °F 84.5 °F 55.4 °F 35% 30.04 in 6.2 mi North 13.8 mph - N/A   Scattered Clouds
4:00 PM 80 °F - 58 °F 37% 29.94 in 9 mi North 18.4 mph - -   Scattered Clouds
5:00 PM 77.0 °F - 59.0 °F 54% 30.01 in 6.2 mi North 19.6 mph - N/A   Scattered Clouds
6:00 PM 73.4 °F - 59.0 °F 61% 30.04 in 6.2 mi North 17.3 mph - N/A   Scattered Clouds
7:00 PM 70 °F - 58 °F 57% 29.99 in 7 mi North 15.0 mph - -   Scattered Clouds
7:00 PM 69.8 °F - 59.0 °F 68% 30.04 in 6.2 mi North 15.0 mph - N/A   Scattered Clouds
8:00 PM 66.2 °F - 59.0 °F 78% 30.06 in 6.2 mi North 11.5 mph - N/A   Scattered Clouds
9:00 PM 69.8 °F - 59.0 °F 68% 30.04 in 6.2 mi North 15.0 mph - N/A   Scattered Clouds
10:00 PM 63 °F - 59 °F 83% 30.10 in 7 mi North 9.2 mph - -   Scattered Clouds
10:00 PM 62.6 °F - 59.0 °F 88% 30.12 in 6.2 mi North 9.2 mph - N/A   Scattered Clouds